Regional Weather Roundup
Issued by NWS Pendleton, OR

Home | Current Version | Previous Version | Text Only | Print | Product List | Glossary On
Versions: 1 2 3 4 5 6 7 8 9 10 11 12 13 14 15 16 17 18 19 20 21 22 23 24 25 26 27 28 29 30 31 32 33 34 35 36 37 38 39 40 41 42 43 44 45 46 47 48 49 50
418
ASUS46 KPDT 281710
RWRPDT
PENDLETON REGIONAL WEATHER ROUNDUP
NATIONAL WEATHER SERVICE PENDLETON OREGON
1000 AM PDT TUE MAR 28 2017

NOTE: FAIR INDICATES FEW OR NO CLOUDS BELOW 12,000 FEET WITH NO
SIGNIFICANT WEATHER AND/OR OBSTRUCTIONS TO VISIBILITY.

# INDICATES UNOFFICIAL STATION AND DATA

WAZ520-281810-
EAST SLOPES OF WASHINGTON CASCADES

CITY            SKY/WX      TMP DP  RH  WIND    PRES   REMARKS
#CLE ELUM HS    N/A         38  35  89  CALM    30.15S
#CLE ELUM LAKE  N/A         36  35  96  E1      30.22R
#GLENWOOD       N/A         42  40  93  S8      30.28S
#MANASTASH CYN  N/A         42  32  67  CALM    30.14
#NELSON 3SW     N/A         36  35  96  CALM    30.45S
#NILE           N/A         42  36  79  E1      29.48F
#TEANAWAY 4NE   N/A         41  38  89  CALM    N/A
#TROUT LAKE 1NE N/A         40  38  92  CALM    30.30S
#TROUT LAKE 1E  N/A         41  38  89  CALM    30.29S
$$

WAZ521-281810-
SIMCOE HIGHLANDS

CITY            SKY/WX      TMP DP  RH  WIND    PRES   REMARKS
#BICKLETON HS   N/A         39  36  89  SW12    30.23F WCI 32
#CENTERVILLE 1SWN/A         41  36  82  CALM    30.27F
#GOLDENDALE 1NE N/A         42  32  67  SW2     N/A
#GOLDENDALE 4W  N/A         44  19  36  W9      30.29S
#GOODNOE HILLS  N/A         46  37  71  W13     30.18F WCI 40
#LYLE 6NE       N/A         42  40  93  CALM    30.27F
#PITT 4SE       N/A         39  36  89  SW2     30.34S
$$

WAZ026-281810-
KITTITAS VALLEY

CITY            SKY/WX      TMP DP  RH  WIND    PRES   REMARKS
ELLENSBURG AP   CLOUDY      45  36  70  CALM    30.20S
#ELLENSBURG CWU N/A         44  37  76  CALM    30.16S
#ELLENSBURG 3NE N/A         41  37  86  CALM    28.27F
#ELLENSBURG 1E  N/A         42  N/A N/A CALM    N/A
#ELLENSBURG 13S N/A         46  32  58  SW5     N/A
#KITTITAS 4N    N/A         43  37  79  S1      30.21S
#KITTITAS 3S    N/A         43  38  82  CALM    30.22S
#THORP 6N       N/A         39  35  85  N3      30.25S
$$

WAZ027-281810-
YAKIMA VALLEY

CITY            SKY/WX      TMP DP  RH  WIND    PRES   REMARKS
SUNNYSIDE AP    CLOUDY      49  35  58  CALM    30.26S
YAKIMA AIRPORT  MOCLDY      49  38  66  CALM    30.23S
YAKIMA-VAGABOND CLOUDY      47  35  63  S14     30.20S WCI 41
#DONALD 2NE     N/A         59   3  10  S14     28.91S
#GRANDVIEW      N/A         51  36  56  E1      30.27F
#MABTON         N/A         51  40  66  CALM    30.25S
#MOXEE 2E       N/A         48   0  13  SW3     30.15F
#NACHES 2SW     N/A         43  38  82  E2      30.22R
#TERRACE HTS    N/A         46  37  71  CALM    30.22S
#TOPPENISH      N/A         47  38  71  CALM    30.18R
#WEST VALLEY    N/A         45  37  73  CALM    30.22S
#W YAKIMA       N/A         45  37  73  E5      30.23F
#WHITE SWAN 5E  N/A         51  38  61  CALM    30.24S
#WILEY CITY 3W  N/A         44  34  68  CALM    30.19S
$$

WAZ028-281810-
LOWER COLUMBIA BASIN...WASHINGTON

CITY            SKY/WX      TMP DP  RH  WIND    PRES   REMARKS
HANFORD         CLOUDY      50  36  58  N3      30.22R
PASCO           CLOUDY      51  36  56  SW16G24 30.29R
PROSSER AWOS    N/A         52  39  61  S14     30.29F
RICHLAND AWOS   CLOUDY      51  39  63  S14     30.27S
#BENTON CITY    N/A         49  39  68  SW6     30.19R
#CONNELL 5N     N/A         45  40  82  SW7     30.27S
#CONNELL 5NW    N/A         45  40  82  S9      30.21F
#ELTOPIA 6NW    N/A         48  40  74  SW9     29.22R
#KAHLOTUS       N/A         45  38  76  W16G29  30.27R WCI 38
#KENNEWICK 3S   N/A         47  38  71  SW8     30.29R
#PATERSON       N/A         49  40  71  W9      30.28F
#SAGEMOOR 2W    N/A         48  39  71  SW12    30.14S WCI 43
#TOUCHET 2S     N/A         51  38  61  SW8     30.29R
#WEST PASCO     N/A         51  39  63  S7      30.32R
$$

WAZ029-281810-
FOOTHILLS OF THE BLUES...WASHINGTON

CITY            SKY/WX      TMP DP  RH  WIND    PRES   REMARKS
WALLA WALLA AP  CLOUDY      50  37  61  S15     30.30R
#CLYDE 6NW      N/A         46  38  73  SW15G25 30.28R WCI 40
#DAYTON SCHOOL  N/A         45  30  55  SE8     30.29S
#LOWDEN 2SE     N/A         52  39  61  SW8     30.27S
#PLEASANT VIEW 1N/A         44  38  79  S17G26  30.31S WCI 36
#PRESCOTT       N/A         49  39  68  SW6     30.29S
#WHITMAN COLLEGEN/A         49  37  63  SW7     30.35S
#WAITSBURG 5S   N/A         45  38  76  SW3     30.40S
#WAITSBURG 8N   N/A         45  N/A N/A S16     30.23S WCI 38
#WALLA WALLA 5E N/A         50  39  66  S13     N/A
#WHITMAN MISSIONN/A         51  39  63  S7      30.32S
$$

WAZ030-281810-
BLUE MOUNTAINS...WASHINGTON

CITY            SKY/WX      TMP DP  RH  WIND    PRES   REMARKS
#DIXIE 5SE      N/A         40  33  76  S10     30.18F
$$

ORZ009-041-WAZ024-281810-
COLUMBIA RIVER GORGE

CITY            SKY/WX      TMP DP  RH  WIND    PRES   REMARKS
HOOD RIVER AP   CLOUDY      46  41  83  CALM    30.31S
THE DALLES AP   CLOUDY      47  41  79  CALM    30.32S
#ARLINGTON AIRPON/A         47  39  74  W3      30.31S
#CELILO DOT     N/A         48  37  65  SW1     N/A
#LYLE           N/A         48  42  80  W2      30.33S
#MOSIER 1S      N/A         47  34  60  CALM    30.29S
#MURDOCK        N/A         46  41  83  W2      30.28S
#RUFUS DOT      N/A         47  40  76  NW3     N/A
#SMITHVILLE     N/A         47  42  83  N2      30.27S

$$

ORZ510-281810-
NORTH CENTRAL OREGON

CITY            SKY/WX      TMP DP  RH  WIND    PRES   REMARKS
#ANTELOPE       N/A         41  33  73  W7      30.22S
#CHENOWITH 1W   N/A         41  38  89  NW7     N/A
#COW CYN RST AREN/A         40  30  67  SW8     N/A
#DUFUR          N/A         42  38  86  E1      30.27S
#DUFUR 9E       N/A         42  35  76  SW16    30.36S WCI 34
#GRASS VALLEY 1SN/A         44  36  73  SW10    30.39S
#KENT DOT       N/A         44  27  51  N16     N/A    WCI 37
#MAUPIN SCHOOL  N/A         49  38  66  SW2     30.34S
#MORO SCHOOL    N/A         45  39  79  NW7     30.33S
#SHANIKO 5WSW   N/A         39  27  62  N16     N/A    WCI 30
#SHANIKO 4NW    N/A         38  31  76  SW5     30.24S
#TYGH VALLEY 2NEN/A         47  37  68  N3      30.29F
#WAPANITIA AIRPON/A         45  35  68  SW2     30.33S
#WASCO 5NE      N/A         45  39  79  CALM    30.30S
$$

ORZ511-281810-
CENTRAL OREGON

CITY            SKY/WX      TMP DP  RH  WIND    PRES   REMARKS
BEND AIRPORT    PTCLDY      43  30  60  SW10    30.30R
MADRAS AIRPORT  CLOUDY      43  32  65  S7      30.32R
PRINEVILLE AP   CLOUDY      41  32  70  CALM    30.30S
REDMOND AIRPORT MOCLDY      43  29  57  SW3     30.30S
#ASHWOOD SCHOOL N/A         43  34  70  CALM    30.23S
#BEND 1SW       N/A         41  33  73  SW2     N/A
#BEND-AWBREY    N/A         41  33  73  S3      30.34S
#BEND-KIM LN    N/A         43  35  73  E2      30.28F
#CULVER         N/A         43  32  65  S5      30.25F
#CULVER 8W      N/A         45  32  60  SW5     30.26R
#POWELL BUTTE   N/A         41  30  65  N5      30.22R
#PRINEVILLE     N/A         41  32  70  CALM    30.45R
#PRINEVILLE 3N  N/A         42  35  76  E5      30.34S

$$


ORZ509-281810-
EAST SLOPES OF OREGON CASCADES

CITY            SKY/WX      TMP DP  RH  WIND    PRES   REMARKS
SISTERS AWOS    N/A         41  34  76  CALM    30.24S
#BLUE BOX PASS  N/A         33  N/A N/A SW8     N/A
#CAMP SHERMAN   N/A         41  33  73  N1      30.40F
#LA PINE DOT    N/A         40  27  59  SW2     N/A
#LA PINE 4SW    N/A         39  29  67  S1      30.29R
#LA PINE 4NW    N/A         37  30  75  CALM    30.42R
#LAVA BUTTE DOT N/A         36  27  69  SE1     N/A
#SISTERS 3N     N/A         44  31  60  S2      30.38S
#SUNRIVER       N/A         39  33  79  S3      30.37F
#TUMALO 3W      N/A         39  32  76  CALM    30.22F
#WANOGA BUTTE D N/A         31  28  88  S1      N/A

$$

ORZ044-281810-
LOWER COLUMBIA BASIN...OREGON

CITY            SKY/WX      TMP DP  RH  WIND    PRES   REMARKS
HERMISTON       CLOUDY      51  39  63  W9      30.29S
#BOARDMAN SCHOOLN/A         51  40  66  SW8     30.29S
#BOARDMAN 8SW   N/A         49  40  71  SW9     30.30R
#ECHO 8SW       N/A         52  38  59  W8      30.30S
#I-84 EX 198 DOTN/A         49  36  61  N8      N/A
#IONE SCHOOL    N/A         50  33  52  S7      30.32S
#UMATILLA       N/A         51  38  61  W5      30.24S
$$

ORZ507-281810-
NORTHERN FOOTHILLS OF THE BLUES

CITY            SKY/WX      TMP DP  RH  WIND    PRES   REMARKS
PENDLETON AIRPT CLOUDY      48  36  63  SW3     30.29R
#ADAMS 3WNW     N/A         48  38  68  SW7     30.31S
#ATHENA         N/A         47  35  63  SW3     30.33F
#CAYUSE         N/A         47  35  63  SW8     30.30F
#HELIX SCHOOL   N/A         47  37  68  N7      30.31S
#HELIX 3N       N/A         46  36  68  SW14    30.24R WCI 40
#HOLDMAN 5SE    N/A         48  38  68  W8      30.27S
#HOLDMAN 6E     N/A         46  38  73  S7      30.11S
#M-F FERNDALE   N/A         51  35  54  CALM    30.27S
#M-F GROVE ELEM N/A         49  35  58  CALM    30.27S
#M-FREEWATER 5SEN/A         48  36  63  CALM    30.28S
#PENDLETON DNTN N/A         50  38  63  SW5     30.28S
#PDT AQUATIC CTRN/A         50  39  66  S5      30.29S
#PDT SUNRIDGE   N/A         50  39  66  SW3     30.30F
#PENDLETON 7NW  N/A         49  37  63  W5      25.80S
#PILOT ROCK 1S  N/A         50  31  48  S9      30.27F
#PILOT ROCK     N/A         50  36  58  W7      30.29S
#TUTUILLA       N/A         50  37  61  S5      30.31S
#WESTON SCHOOL  N/A         45  32  60  W5      30.29S

$$

ORZ508-281810-
SOUTHERN FOOTHILLS OF THE BLUES

CITY            SKY/WX      TMP DP  RH  WIND    PRES   REMARKS
LEXINGTON       MOCLDY      50  34  54  SW13    30.31S
#AJAX           N/A         44  28  53  S7      30.40S
#CONDON SCHOOL  N/A         41  33  73  SW10    30.20S
#CONDON 5W      N/A         39  30  70  S12     30.23S WCI 32
#HEPPNER EOC    N/A         47  32  56  SW15    30.25R WCI 41
#HEPPNER 4NE    N/A         45  33  63  SW8     30.31S
#LEXINGTON 2SE  N/A         50  34  54  CALM    30.27R
#MIKKALO        N/A         47  35  63  W5      30.37S
#OLEX 4N        N/A         46  38  73  W5      30.27S
#RUGGS 5NE      N/A         44  30  58  SW9     30.43S
#RUGGS 2SW      N/A         44  32  62  SW12    30.33S WCI 38

$$

ORZ502-503-281810-
BLUE MOUNTAINS

CITY            SKY/WX      TMP DP  RH  WIND    PRES   REMARKS
MEACHAM         CLOUDY      38  30  73  CALM    30.26S
#BATTLE MTN DOT N/A         33  30  89  S7      N/A
#GREENHORN 9SW  N/A         37  34  89  CALM    26.46R
#HARDMAN 10S    N/A         35  30  82  S3      30.46R
#HEPPNER 15SE   N/A         38  31  76  W1      30.24S
#LADD CYN SMT   N/A         38  30  73  SE6     N/A
#LADD CREEK ODOTN/A         39  38  96  CALM    N/A
#LONG CREEK HS  N/A         39  35  85  CALM    N/A
#N POWDER DOT   N/A         39  34  82  CALM    N/A
#PIKES PEAK     N/A         37  30  75  W15     27.99S WCI 28
#TOLLGATE       N/A         29  28  96  SW2     30.05F
#TROY SCHOOL    N/A         44  38  79  CALM    30.17F
#UKIAH          N/A         39  34  82  SE2     30.26F
#WESTON 4E      N/A         40  34  79  S6      30.29S
$$

ORZ505-281810-
JOHN DAY BASIN

CITY            SKY/WX      TMP DP  RH  WIND    PRES   REMARKS
JOHN DAY        CLOUDY      41  33  73  CALM    30.30S
#JOHN DAY KJDY  N/A         41  N/A N/A CALM    29.62F
#ANTELOPE 9ESE  N/A         47  35  63  CALM    N/A
#DAYVILLE SCHOOLN/A         40  32  73  E1      30.26F
#MITCHELL       N/A         43  35  73  CALM    30.43S
#MITCHELL 8NW   N/A         41  31  67  S1      30.26S
#MONUMENT HS    N/A         45  34  65  CALM    30.26S
#MT. VERNON 5SE N/A         39  31  73  CALM    30.24S
#SPRAY SCHOOL   N/A         45  N/A N/A CALM    N/A
#WINLOCK        N/A         43  34  70  SW3     30.24R
$$

ORZ506-281810-
OCHOCO AND JOHN DAY HIGHLANDS

CITY            SKY/WX      TMP DP  RH  WIND    PRES   REMARKS
#HORSE RIDGE DO N/A         37  29  72  SE3     N/A
#PAULINA SCHOOL N/A         38  30  73  CALM    N/A
#PINE MTN OBS   N/A         30  27  88  CALM    N/A
#PRAIRIE CITY   N/A         35  31  85  CALM    30.46R
#SENECA 9NW     N/A         32  29  89  CALM    30.37S
$$

ORZ049-281810-
GRANDE RONDE VALLEY

CITY            SKY/WX      TMP DP  RH  WIND    PRES   REMARKS
LA GRANDE       CLOUDY      41  36  82  E5      30.29R
#COVE           N/A         39  38  96  CALM    30.31R
#COVE SCHOOL    N/A         39  36  89  CALM    30.29R
#COVE 6NW       N/A         40  36  85  CALM    30.35R
#ELGIN 3N       N/A         41  36  82  CALM    30.24S
#ELGIN 1E       N/A         41  36  82  CALM    N/A
#IMBLER SCHOOL  N/A         39  34  82  SE3     30.23S
#ISLAND CITY 4N N/A         47  44  89  S2      30.32S
#LADD CYN DOT   N/A         43  36  76  CALM    N/A
#UNION 1S       N/A         42  35  76  S1      30.35R
$$

ORZ050-281810-
WALLOWA COUNTY

CITY            SKY/WX      TMP DP  RH  WIND    PRES   REMARKS
JOSEPH AIRPORT  CLOUDY      39  30  70  SE5     30.26S
#IMNAHA SCHOOL  N/A         47  35  63  S2      30.27F
#IMNAHA 10S     N/A         52  33  48  S7      29.84S
#JOSEPH 3N      N/A         39  28  64  SE3     30.26R
#JOSEPH 3W      N/A         37  28  70  SE1     30.06R
#LOSTINE        N/A         40  34  79  CALM    30.14R
#LOSTINE 3SE    N/A         40  32  73  CALM    30.32R
#MT HOWARD 8000 N/A         23  19  84  SW1     30.14R
#PROMISE 1S     N/A         38  32  79  NE1     30.42R
#WALLOWA SCHOOL N/A         38  34  85  CALM    30.24R



$$



USA.gov is the U.S. government's official web portal to all federal, state and local government web resources and services.